Weather History for Baltimore Martin, MD

Change the Weather History Date:

Monday, August 12, 2013

  Actual Average Record
Temperature  
Mean Temperature 80 °F -  
Max Temperature 87 °F 82 °F 91 °F (2002)
Min Temperature 73 °F 67 °F 59 °F (2006)
Cooling Degree Days 15    
Growing Degree Days 30 (Base 50)    
Moisture  
Dew Point 73 °F    
Average Humidity 82    
Maximum Humidity 94    
Minimum Humidity 55    
Precipitation  
Precipitation 0.00 in - - ()
Sea Level Pressure  
Sea Level Pressure 29.98 in    
Wind  
Wind Speed 1 mph (NE)    
Max Wind Speed 6 mph    
Max Gust Speed -    
Visibility 9 miles    
Events      
Averages and records for this station are not official NWS values.
T = Trace of Precipitation, MM = Missing Value Source: NWS Daily Summary

Daily Weather History Graph

Daily Weather History Graph

Search for Another Location

Airport:

Trip Planner

Search our weather history database for the weather conditions in past years. The results will help you decide how hot, cold, wet, or windy it might be!

Date:

Astronomy

Aug. 12, 2013 Rise Set
Actual Time 6:15 AM EDT 8:04 PM EDT
Civil Twilight 5:46 AM EDT 8:33 PM EDT
Nautical Twilight 5:11 AM EDT 9:08 PM EDT
Astronomical Twilight 4:34 AM EDT 9:45 PM EDT
Moon 12:01 PM EDT (8/12) 10:58 PM EDT (8/12)
Length of Visible Light 14h 46m
Length of Day
13h 48m
Waxing Crescent, 31% of the Moon is Illuminated
Aug 12
Waxing Crescent
Aug 14
First Quarter
Aug 20
Full
Aug 28
Last Quarter
Sep 5
New

Hourly Weather History & Observations

Time (EDT) Temp. Heat Index Dew Point Humidity Pressure Visibility Wind Dir Wind Speed Gust Speed Precip Events Conditions
12:03 AM 73.4 °F - 71.6 °F 94% 30.04 in 10.0 mi ESE 3.5 mph - N/A   Clear
5:50 AM 73.4 °F - 71.6 °F 94% 30.02 in 7.0 mi Calm Calm - N/A   Overcast
6:55 AM 73.4 °F - 71.6 °F 94% 30.02 in 7.0 mi Calm Calm - N/A   Mostly Cloudy
7:54 AM 75.2 °F - 73.4 °F 94% 30.02 in 7.0 mi Calm Calm - N/A   Mostly Cloudy
8:45 AM 77.0 °F - 73.4 °F 89% 30.02 in 7.0 mi Calm Calm - N/A   Mostly Cloudy
9:54 AM 80.6 °F 85.4 °F 73.4 °F 79% 30.02 in 7.0 mi West 5.8 mph - N/A   Mostly Cloudy
10:54 AM 80.6 °F 85.4 °F 73.4 °F 79% 30.02 in 7.0 mi North 3.5 mph - N/A   Mostly Cloudy
11:54 AM 82.4 °F 88.2 °F 73.4 °F 74% 30.01 in 7.0 mi North 4.6 mph - N/A   Mostly Cloudy
12:45 PM 84.2 °F 89.6 °F 71.6 °F 66% 30.01 in 10.0 mi Calm Calm - N/A   Scattered Clouds
1:52 PM 84.2 °F 89.6 °F 71.6 °F 66% 30.00 in 10.0 mi Calm Calm - N/A   Scattered Clouds
2:55 PM 84.2 °F 90.9 °F 73.4 °F 70% 29.99 in 10.0 mi Calm Calm - N/A   Scattered Clouds
4:45 PM 87.8 °F 92.6 °F 69.8 °F 55% 29.97 in 10.0 mi Calm Calm - N/A   Scattered Clouds
6:50 PM 82.4 °F 88.2 °F 73.4 °F 74% 29.95 in 10.0 mi ESE 4.6 mph - N/A   Scattered Clouds
7:55 PM 80.6 °F 84.6 °F 71.6 °F 74% 29.96 in 10.0 mi Calm Calm - N/A   Mostly Cloudy
8:55 PM 78.8 °F - 73.4 °F 83% 29.95 in 10.0 mi Calm Calm - N/A   Mostly Cloudy
10:09 PM 77.0 °F - 73.4 °F 89% 29.95 in 10.0 mi Calm Calm - N/A   Clear
10:30 PM 77.0 °F - 73.4 °F 89% 29.95 in 10.0 mi Calm Calm - N/A   Clear
10:48 PM 77.0 °F - 73.4 °F 89% 29.95 in 10.0 mi Calm Calm - N/A   Clear
11:09 PM 77.0 °F - 73.4 °F 89% 29.95 in 10.0 mi Calm Calm - N/A   Clear
11:30 PM 77.0 °F - 73.4 °F 89% 29.94 in 10.0 mi Calm Calm - N/A   Clear
11:48 PM 77.0 °F - 73.4 °F 89% 29.94 in 10.0 mi Calm Calm - N/A   Clear